This demonstration page uses our WeatherBlox Daily Observations layout. Learn more.

Left ArrowRight Arrow

Hourly Observations for June 12, 2020

Temp ( °F °C ) Dew Point ( °F °C ) Humidity (%) Winds ( mph kmh ) Pressure ( in mb ) Visibility ( mi km ) Precip ( " mm )
12:53 am 00:53 Clear 80 26.7 42 5.6 26 26 SSE 9 15 30.11 1020 10 16 0.00 0.00
1:53 am 01:53 Clear 77 25 42 5.6 29 29 SSE 9 15 30.11 1020 10 16 0.00 0.00
2:53 am 02:53 Clear 75 23.9 42 5.6 31 31 ESE 9 15 30.11 1020 10 16 0.00 0.00
3:53 am 03:53 Clear 73 22.8 42 5.6 33 33 ESE 10 17 30.11 1020 10 16 0.00 0.00
4:53 am 04:53 Clear 71 21.7 42 5.6 35 35 ESE 9 15 30.12 1020 10 16 0.00 0.00
5:53 am 05:53 Clear 68 20 41 5 38 38 ESE 9 15 30.13 1020 10 16 0.00 0.00
6:53 am 06:53 Sunny 69 20.6 40 4.4 35 35 ESE 10 17 30.14 1021 10 16 0.00 0.00
7:53 am 07:53 Sunny 71 21.7 42 5.6 35 35 ESE 12 19 30.16 1021 10 16 0.00 0.00
8:53 am 08:53 Sunny 75 23.9 46 7.8 36 36 SE 16 26 30.15 1021 10 16 0.00 0.00
9:53 am 09:53 Sunny 81 27.2 49 9.4 33 33 SSE 17 28 30.16 1021 10 16 0.00 0.00
10:53 am 10:53 Sunny 84 28.9 46 7.8 27 27 SSE 21 33 30.15 1021 10 16 0.00 0.00
11:53 am 11:53 Sunny 86 30 44 6.7 23 23 SSE 21 33 30.14 1021 10 16 0.00 0.00
12:53 pm 12:53 Sunny 91 32.8 41 5 17 17 SE 20 31 30.13 1020 10 16 0.00 0.00
1:53 pm 13:53 Sunny 91 32.8 35 1.7 14 14 SSE 18 30 30.11 1020 10 16 0.00 0.00
2:53 pm 14:53 Sunny 94 34.4 37 2.8 14 14 SSE 17 28 30.08 1019 10 16 0.00 0.00
3:53 pm 15:53 Sunny 95 35 35 1.7 12 12 SSE 23 37 30.05 1018 10 16 0.00 0.00
4:53 pm 16:53 Sunny 96 35.6 37 2.8 13 13 SE 15 24 30.02 1017 10 16 0.00 0.00
5:53 pm 17:53 Sunny 96 35.6 34 1.1 11 11 S 23 37 30.00 1016 10 16 0.00 0.00
6:53 pm 18:53 Sunny 94 34.4 35 1.7 13 13 SE 15 24 29.98 1015 10 16 0.00 0.00
7:53 pm 19:53 Sunny 93 33.9 35 1.7 13 13 SSE 22 35 29.98 1015 10 16 0.00 0.00
8:53 pm 20:53 Sunny 89 31.7 37 2.8 16 16 SSE 15 24 30.00 1016 10 16 0.00 0.00
9:53 pm 21:53 Clear 84 28.9 37 2.8 19 19 SE 9 15 30.01 1016 10 16 0.00 0.00
10:53 pm 22:53 Clear 78 25.6 36 2.2 22 22 SE 8 13 30.03 1017 10 16 0.00 0.00
11:53 pm 23:53 Clear 79 26.1 34 1.1 20 20 SE 10 17 30.03 1017 10 16 0.00 0.00

Powered by AerisWeather